Miscellaneous Local Product
Issued by NWS Hastings, NE

Home | Current Version | Previous Version | Text Only | Print | Product List | Glossary Off
Versions: 1 2 3 4 5 6 7 8 9 10 11 12 13 14 15 16 17 18 19 20 21 22 23 24 25 26 27 28 29 30 31 32 33 34 35 36 37 38 39 40 41 42 43 44 45 46 47 48 49 50

000
AXUS43 KGID 271602
MISGRI

GID CWA HOURLY WEATHER ROUNDUP
NATIONAL WEATHER SERVICE HASTINGS NE
1100 AM CDT MON MAR 27 2017

NOTE: "FAIR" INDICATES FEW OR NO CLOUDS BELOW 12,000 FEET WITH NO
SIGNIFICANT WEATHER AND/OR OBSTRUCTIONS TO VISIBILITY.

...SOUTH CENTRAL NEBRASKA...

CITY           SKY/WX    TMP DP  RH WIND       PRES   REMARKS
GRAND ISLAND   CLOUDY    44  41  89 NE3       30.00R
HASTINGS       CLOUDY    45  41  86 E6        30.01R
KEARNEY        CLOUDY    46  39  76 CALM      30.00R
ORD            CLOUDY    46  40  79 N3        29.97R
YORK           CLOUDY    45  43  93 N7        29.99R
AURORA         CLOUDY    44  42  94 NE3       29.99R
LEXINGTON      CLOUDY    44  42  96 S6        29.98S
HOLDREGE       CLOUDY    42  41  97 NE3       29.99R FOG
HEBRON         CLOUDY    46  43  91 NE9       29.99S

...NEBRASKA PANHANDLE...

CITY           SKY/WX    TMP DP  RH WIND       PRES   REMARKS
CHADRON        SUNNY     47  40  76 N6        29.87F
ALLIANCE       MOSUNNY   55  38  52 SW14G20   29.89F
SCOTTSBLUFF    SUNNY     49  35  58 CALM      29.91F
SIDNEY         SUNNY     51  37  58 SW9       29.93F

...WESTERN AND NORTH CENTRAL NEBRASKA...

CITY           SKY/WX    TMP DP  RH WIND       PRES   REMARKS
VALENTINE      CLOUDY    45  39  79 S5        29.95S
AINSWORTH      CLOUDY    45  45 100 CALM      29.96R
ONEILL         CLOUDY    46  37  72 CALM      29.98S
BROKEN BOW     CLOUDY    44  32  62 CALM      29.96F
IMPERIAL       SUNNY     49  40  71 CALM      29.95S
NORTH PLATTE   CLOUDY    41  39  93 CALM      29.97R
MCCOOK         SUNNY     49  42  77 VRB5      29.97R

...EASTERN NEBRASKA...

CITY           SKY/WX    TMP DP  RH WIND       PRES   REMARKS
NORFOLK        CLOUDY    46  36  68 NE3       29.98R
SO SIOUX CITY  CLOUDY    48  40  73 NE3       29.98S
TEKAMAH        CLOUDY    47  41  80 N8        29.99R
COLUMBUS       CLOUDY    46  39  76 N6        30.00R
ALBION         CLOUDY    46  38  72 CALM      29.99R
OMAHA EPPLEY   CLOUDY    47  40  76 N8        29.98S
OFFUTT AFB     CLOUDY    48  40  74 N7        29.98R
MILLARD        CLOUDY    48  42  79 N7        29.98S
LINCOLN        CLOUDY    48  42  80 NE7       30.00S
NEBRASKA CITY  CLOUDY    46  41  85 N12       29.98R
BEATRICE       CLOUDY    46  45  95 NE9       29.99S FOG
FALLS CITY     CLOUDY    48  43  82 N10       29.96R

...NORTHERN KANSAS...

CITY           SKY/WX    TMP DP  RH WIND       PRES   REMARKS
GOODLAND       SUNNY     51  42  71 W5        29.96S
HILL CITY      FOG       44  44 100 CALM      29.99S VSB 1/2
NORTON         FOG       41  37  87 CALM      29.98  VSB 0
PHILLIPSBURG   CLOUDY    46  46 100 CALM      30.00S
HAYS             N/A     49  43  80 NE5       29.99S
RUSSELL        PTSUNNY   51  43  74 NE7       29.97S
CONCORDIA      CLOUDY    48  46  93 NE9       29.97F
SALINA         CLOUDY    51  46  83 N9        29.98R
TOPEKA         CLOUDY    48  47  96 NW10      29.96R



USA.gov is the U.S. government's official web portal to all federal, state and local government web resources and services.